Location: Navalmoral
(40.4603°N, 4.7686°W)
Time: 17:16:31
(UTC+00:00)

Cosmos 1626 Rocket - Pass Details

Date: 05 August 2024
Orbit: 600 x 626 km, 82.5° (Epoch: 18 September)

Event Time Altitude Azimuth Distance (km) Brightness Sun altitude
Exits shadow 21:40:29 22° 211° (SSW) 1,324 5.1 -21.3°
Maximum altitude 21:43:02 53° 280° (W) 746 4.2 -21.6°
Drops below altitude 10° 21:47:17 10° 358° (N) 1,962 6.8 -22.2°
Sets 21:49:34 0° 3° (N) 2,875 7.7 -22.4°
